Overview Statistics Trail Chart Weather Telemetry Raw packets
 

This is the latest recevied weather packets stored in our database for station/object LA4GY-1. If no packets are shown the sender has not sent any weather packets the latest 10 day(s).

<< 1 2 3 4 5 6 >>
Time Temp. Humidity Pressure Rain* Wind** Luminosity Snow
1788626685 12.78° C 93% 1003.2 hPa 3.3 mm - - -
1788626085 12.78° C 93% 1003.1 hPa 4.57 mm - - -
1788625455 12.78° C 93% 1003.1 hPa 5.08 mm - - -
1788624855 12.78° C 93% 1002.9 hPa 5.08 mm - - -
1788624255 12.78° C 92% 1002.9 hPa 6.35 mm - - -
1788623625 13.33° C 92% 1002.7 hPa 7.62 mm - - -
1788622995 13.33° C 92% 1002.8 hPa 7.37 mm - - -
1788622365 13.33° C 93% 1002.6 hPa 6.1 mm - - -
1788621765 13.89° C 92% 1002.4 hPa 5.84 mm - - -
1788621165 13.89° C 91% 1002.3 hPa 5.84 mm - - -
1788620535 13.89° C 90% 1002.3 hPa 5.08 mm - - -
1788619935 14.44° C 90% 1002.2 hPa 4.06 mm - - -
1788619305 15° C 88% 1002.1 hPa 1.27 mm - - -
1788618674 15.56° C 87% 1002 hPa 1.27 mm - - -
1788618074 16.11° C 86% 1001.9 hPa 1.27 mm - - -
1788617444 16.11° C 84% 1001.8 hPa 1.02 mm - - -
1788616814 16.67° C 81% 1001.7 hPa 0.51 mm - - -
1788616214 17.22° C 75% 1001.6 hPa 0 mm - - -
1788615614 17.22° C 72% 1001.5 hPa 0 mm - - -
1788614984 17.22° C 69% 1001.4 hPa 0 mm - - -
1788614384 17.22° C 69% 1001.2 hPa 0 mm - - -
1788613784 17.22° C 71% 1001.3 hPa 0 mm - - -
1788613184 17.22° C 68% 1001.3 hPa 0 mm - - -
1788612584 17.22° C 69% 1001.1 hPa 0 mm - - -
1788611984 17.22° C 67% 1001.2 hPa 0 mm - - -

* Rain latest hour (hover to see other rain measurements)
** Current wind speed in m/s (hover to see current wind gust speed)